This demonstration page uses our WeatherBlox Daily Observations layout. Learn more.

Left ArrowRight Arrow

Hourly Observations for July 23, 2016

Temp ( °F °C ) Dew Point ( °F °C ) Humidity (%) Winds ( mph kmh ) Pressure ( in mb ) Visibility ( mi km ) Precip ( " mm )
12:15 am 00:15 Clear 76 24.5 68 20.1 77 77 E 9 15 29.83 1010 10 16 N/A
12:35 am 00:35 Clear 76 24.3 68 19.8 76 76 ESE 8 13 29.83 1010 10 16 N/A
12:55 am 00:55 Clear 76 24.4 67 19.5 74 74 ESE 9 15 29.80 1009 10 16 N/A
1:15 am 01:15 Clear 76 24.2 67 19.5 75 75 SE 6 9 29.80 1009 10 16 N/A
1:35 am 01:35 Clear with Nearby Thunderstorms 75 23.9 67 19.6 77 77 N N/A 29.83 1010 10 16 N/A
1:55 am 01:55 Partly Cloudy with Nearby Thunderstorms 78 25.8 68 20 70 70 NW 13 20 29.85 1011 10 16 N/A
2:15 am 02:15 Partly Cloudy with Light Rain 75 24.1 71 21.6 86 86 NW 16 26 29.88 1012 10 16 N/A
2:35 am 02:35 Partly Cloudy with Nearby Thunderstorms 73 23 67 19.4 80 80 NNW 20 31 29.91 1013 10 16 N/A
2:55 am 02:55 Clear with Light Rain 72 22.2 66 19 82 82 NNW 20 31 29.91 1013 10 16 N/A
3:15 am 03:15 Clear with Light Rain 71 21.7 66 19 85 85 NNW 15 24 29.88 1012 10 16 N/A
3:35 am 03:35 Clear 71 21.5 66 19 86 86 NNW 6 9 29.88 1012 10 16 N/A
3:55 am 03:55 Clear 71 21.5 66 19 86 86 N N/A 29.88 1012 10 16 N/A
4:15 am 04:15 Clear 70 21.2 66 19 87 87 N N/A 29.85 1011 10 16 N/A
4:35 am 04:35 Mostly Cloudy with Rain 71 21.4 67 19.3 88 88 SW 3 6 29.88 1012 7 11 0.01 0.25
4:55 am 04:55 Cloudy 71 21.5 67 19.5 88 88 SW 6 9 29.85 1011 10 16 0.02 0.51
5:15 am 05:15 Mostly Cloudy with Light Rain 73 22.9 65 18.6 77 77 S 13 20 29.80 1009 10 16 0.01 0.25
5:35 am 05:35 Clear with Light Rain 74 23.3 64 18 72 72 S 16 26 29.80 1009 10 16 0.01 0.25
5:55 am 05:55 Clear 75 23.7 64 17.7 69 69 S 8 13 29.77 1008 10 16 0.01 0.25
6:15 am 06:15 Partly Cloudy 75 24.1 62 16.9 64 64 S 13 20 29.77 1008 10 16 N/A
6:35 am 06:35 Sunny 77 25 61 16.1 58 58 S 14 22 29.77 1008 10 16 N/A
6:55 am 06:55 Sunny with Light Rain 76 24.6 62 16.5 61 61 S 16 26 29.74 1007 10 16 N/A
7:15 am 07:15 Sunny 76 24.2 63 17.1 65 65 S 15 24 29.74 1007 10 16 N/A
7:35 am 07:35 Sunny 74 23.6 64 17.6 69 69 S 13 20 29.77 1008 10 16 N/A
7:55 am 07:55 Sunny 73 23 65 18.3 75 75 S 10 17 29.77 1008 10 16 N/A
8:15 am 08:15 Sunny 73 23 66 18.7 77 77 S 9 15 29.74 1007 10 16 N/A
8:35 am 08:35 Sunny 75 24 66 18.8 73 73 SSE 7 11 29.74 1007 10 16 N/A
8:55 am 08:55 Sunny 77 25.1 66 18.9 69 69 S 10 17 29.74 1007 10 16 N/A
9:15 am 09:15 Sunny 78 25.8 66 19.1 67 67 S 9 15 29.71 1006 10 16 N/A
9:35 am 09:35 Sunny 79 26 67 19.3 67 67 S 9 15 29.71 1006 10 16 N/A
9:55 am 09:55 Sunny 78 25.8 67 19.6 69 69 SSW 9 15 29.71 1006 10 16 N/A
10:15 am 10:15 Sunny 78 25.3 67 19.6 71 71 SSW 10 17 29.77 1008 10 16 N/A
10:35 am 10:35 Sunny 78 25.5 68 20.2 73 73 N N/A 29.77 1008 10 16 N/A
10:55 am 10:55 Sunny 79 26.1 69 20.6 72 72 WSW 3 6 29.74 1007 10 16 N/A
11:15 am 11:15 Sunny 80 26.9 70 20.9 70 70 W 3 6 29.74 1007 10 16 N/A
11:35 am 11:35 Sunny 81 27.4 70 21 68 68 W 3 6 29.74 1007 10 16 N/A
11:55 am 11:55 Sunny 83 28.1 71 21.5 67 67 N N/A 29.74 1007 10 16 N/A
12:15 pm 12:15 Sunny 83 28.4 72 22.1 69 69 WNW 5 7 29.74 1007 10 16 N/A
12:35 pm 12:35 Sunny 85 29.7 71 21.6 62 62 W 5 7 29.71 1006 10 16 N/A
12:55 pm 12:55 Sunny 86 30.1 70 21 58 58 WSW 5 7 29.71 1006 10 16 N/A
1:15 pm 13:15 Sunny 88 30.9 68 20.2 53 53 SSW 6 9 29.71 1006 10 16 N/A
1:35 pm 13:35 Sunny 89 31.4 70 20.9 54 54 SSW 7 11 29.71 1006 10 16 N/A
1:55 pm 13:55 Sunny 89 31.7 69 20.8 52 52 WSW 7 11 29.71 1006 10 16 N/A
2:15 pm 14:15 Sunny 90 32.2 68 19.9 48 48 SW 7 11 29.68 1005 10 16 N/A
2:35 pm 14:35 Sunny 92 33.1 67 19.4 44 44 SSW 8 13 29.65 1004 10 16 N/A
2:55 pm 14:55 Sunny 92 33.1 67 19.6 45 45 SW 7 11 29.65 1004 10 16 N/A
3:15 pm 15:15 Sunny 91 32.8 66 19.1 44 44 WSW 5 7 29.68 1005 10 16 N/A
3:35 pm 15:35 Sunny 93 33.8 67 19.4 43 43 SW 6 9 29.65 1004 10 16 N/A
3:55 pm 15:55 Sunny 93 33.8 67 19.5 43 43 S 7 11 29.65 1004 10 16 N/A
4:15 pm 16:15 Sunny 93 34.1 66 19.1 41 41 SSW 5 7 29.65 1004 10 16 N/A
4:35 pm 16:35 Sunny 93 34.1 66 19 41 41 SW 5 7 29.65 1004 10 16 N/A
4:55 pm 16:55 Sunny 92 33.4 66 18.9 42 42 WSW 3 6 29.62 1003 10 16 N/A
5:15 pm 17:15 Sunny 92 33.4 66 19.1 43 43 SW 5 7 29.62 1003 10 16 N/A
5:35 pm 17:35 Sunny 90 32.2 70 21 52 52 N N/A 29.65 1004 10 16 N/A
5:55 pm 17:55 Sunny 90 32.3 74 23.4 59 59 N N/A 29.65 1004 10 16 N/A
6:15 pm 18:15 Sunny 89 31.7 75 23.7 63 63 N N/A 29.65 1004 10 16 N/A
6:35 pm 18:35 Sunny 89 31.5 76 24.2 65 65 NW 3 6 29.65 1004 10 16 N/A
6:55 pm 18:55 Sunny 89 31.6 75 23.7 63 63 NW 5 7 29.65 1004 10 16 N/A
7:15 pm 19:15 Sunny 89 31.7 74 23.4 61 61 NNW 5 7 29.65 1004 10 16 N/A
7:35 pm 19:35 Sunny 88 31.3 74 23.1 62 62 NNW 3 6 29.65 1004 10 16 N/A
7:55 pm 19:55 Sunny 87 30.7 74 23.4 65 65 N 3 6 29.65 1004 10 16 N/A
8:15 pm 20:15 Sunny 85 29.6 76 24.4 74 74 N 3 6 29.65 1004 10 16 N/A
8:35 pm 20:35 Sunny 85 29.4 75 23.7 71 71 N N/A 29.65 1004 10 16 N/A
8:55 pm 20:55 Sunny 82 28 75 24 79 79 N N/A 29.71 1006 10 16 N/A
9:15 pm 21:15 Clear 81 27.4 75 23.7 80 80 N 5 7 29.71 1006 10 16 N/A
9:35 pm 21:35 Clear 79 26.3 75 23.7 86 86 N 5 7 29.71 1006 10 16 N/A
9:55 pm 21:55 Clear 78 25.8 73 23 85 85 NNE 7 11 29.71 1006 10 16 N/A
10:15 pm 22:15 Clear 78 25.5 73 23 86 86 N 7 11 29.77 1008 10 16 N/A
10:35 pm 22:35 Clear 77 25 73 22.8 88 88 NNE 3 6 29.77 1008 10 16 N/A
10:55 pm 22:55 Clear 76 24.7 73 22.6 88 88 N 6 9 29.77 1008 10 16 N/A
11:15 pm 23:15 Clear 76 24.3 72 22.1 88 88 N N/A 29.77 1008 10 16 N/A
11:35 pm 23:35 Clear 75 23.7 71 21.6 88 88 NNE 3 6 29.80 1009 10 16 N/A
11:55 pm 23:55 Clear 76 24.7 72 22 85 85 N 5 7 29.80 1009 10 16 N/A

Powered by AerisWeather